Terminal Aerodrome Forecast
Issued by NWS Chicago, IL

Home | Current Version | Previous Version | Graphics & Text | Print | Product List | Glossary On
Versions: 1 2 3 4 5 6 7 8 9 10 11 12 13 14 15 16 17 18 19 20 21 22 23 24 25 26 27 28 29 30 31 32 33
000
FTUS43 KLOT 240800 AAA
TAFRFD
TAF AMD
KRFD 240810Z 2408/2506 36004KT 6SM BR BKN007 OVC120
     FM241500 36011G18KT 3SM -RASN BR SCT008 OVC015
     FM242100 30012KT 4SM -SN BR OVC010=

USA.gov is the U.S. government's official web portal to all federal, state and local government web resources and services.